This is the latest recevied weather packets stored in our database for station/object HB9DDE-10. If no packets are shown the sender has not sent any weather packets the latest 1 day(s).
| Time | Temp. | Humidity | Pressure | Rain* | Wind** | Luminosity | Snow |
|---|---|---|---|---|---|---|---|
| 1778079226 | 11.11° C | 88% | 1010.1 hPa | 0 mm | - | - | - |
| 1778077734 | 11.11° C | 86% | 1010 hPa | 0 mm | - | - | - |
| 1778077133 | 11.11° C | 87% | 1010 hPa | 0 mm | - | - | - |
| 1778076532 | 11.11° C | 87% | 1010 hPa | 0 mm | - | - | - |
| 1778075627 | 11.11° C | 88% | 1009.9 hPa | 0 mm | - | - | - |
| 1778075373 | 11.11° C | 88% | 1009.9 hPa | 0 mm | - | - | - |
| 1778074130 | 10.56° C | 91% | 1009.9 hPa | 0 mm | - | - | - |
| 1778073528 | 10.56° C | 92% | 1009.8 hPa | 0 mm | - | - | - |
| 1778073218 | 10.56° C | 92% | 1009.8 hPa | 2.03 mm | - | - | - |
| 1778071131 | 10° C | 93% | 1009.8 hPa | 13.97 mm | - | - | - |
| 1778070821 | 10° C | 93% | 1009.7 hPa | 14.99 mm | - | - | - |
| 1778069915 | 10° C | 93% | 1009.6 hPa | 18.03 mm | - | - | - |
| 1778069626 | 10° C | 93% | 1009.6 hPa | 17.02 mm | - | - | - |
| 1778068421 | 10° C | 92% | 1009.5 hPa | 9.91 mm | - | - | - |
| 1778068131 | 10° C | 91% | 1009.3 hPa | 7.87 mm | - | - | - |
| 1778067820 | 10.56° C | 91% | 1009.3 hPa | 7.11 mm | - | - | - |
| 1778067227 | 10.56° C | 91% | 1009.1 hPa | 5.08 mm | - | - | - |
| 1778066916 | 11.11° C | 92% | 1009 hPa | 4.06 mm | - | - | - |
| 1778066315 | 11.11° C | 90% | 1008.8 hPa | 2.03 mm | - | - | - |
| 1778066025 | 11.67° C | 90% | 1008.8 hPa | 1.02 mm | - | - | - |
| 1778064515 | 12.78° C | 88% | 1008.4 hPa | 0 mm | - | - | - |
| 1778062422 | 12.78° C | 88% | 1008.2 hPa | 2.03 mm | - | - | - |
| 1778062116 | 12.78° C | 89% | 1008.2 hPa | 2.03 mm | - | - | - |
| 1778060916 | 12.22° C | 90% | 1008 hPa | 3.05 mm | - | - | - |
| 1778060626 | 12.22° C | 90% | 1008.1 hPa | 3.05 mm | - | - | - |
* Rain latest hour (hover to see other rain measurements)
** Current wind speed in m/s (hover to see current wind gust speed)